Overview Statistics Trail Chart Weather Telemetry Raw packets
 

This is the latest recevied weather packets stored in our database for station/object KC4JIR. If no packets are shown the sender has not sent any weather packets the latest 10 day(s).

<< 1 2 3 4 5 >>
Time Temp. Humidity Pressure Rain* Wind** Luminosity Snow
1788622853 31.11° C 79% 1011.8 hPa 0 mm - 918 W/m² -
1788622549 30.56° C 82% 1011.9 hPa 0 mm - 920 W/m² -
1788622249 30.56° C 83% 1011.9 hPa 0 mm - 863 W/m² -
1788621943 30° C 84% 1011.8 hPa 0 mm - 786 W/m² -
1788621638 29.44° C 86% 1011.9 hPa 0 mm - 803 W/m² -
1788621334 28.89° C 88% 1012.2 hPa 0 mm - 786 W/m² -
1788621029 28.33° C 90% 1012.1 hPa 0 mm - 785 W/m² -
1788620724 28.33° C 90% 1012.3 hPa 0 mm - 405 W/m² -
1788620421 28.33° C 90% 1012.4 hPa 0 mm - 775 W/m² -
1788620115 27.78° C 92% 1012.4 hPa 0 mm - 766 W/m² -
1788619809 27.22° C 94% 1012.2 hPa 0 mm - 738 W/m² -
1788619504 27.22° C 93% 1012.4 hPa 0 mm - 85 W/m² -
1788619203 27.78° C 93% 1012.6 hPa 0 mm - 233 W/m² -
1788618902 27.78° C 92% 1012.5 hPa 0 mm - 559 W/m² -
1788618597 27.78° C 94% 1012.5 hPa 0 mm - 692 W/m² -
1788618296 27.22° C 96% 1012.5 hPa 0 mm - 684 W/m² -
1788617992 26.67° C 96% 1012.6 hPa 0 mm - 545 W/m² -
1788617686 26.11° C 98% 1012.4 hPa 0 mm - 527 W/m² -
1788617383 26.11° C 99% 1012.7 hPa 0 mm - 119 W/m² -
1788617077 25.56° C 99% 1012.9 hPa 0 mm - 86 W/m² -
1788616776 25.56° C 99% 1012.6 hPa 0 mm - 79 W/m² -
1788616471 25° C 99% 1012.5 hPa 0 mm - 158 W/m² -
1788616162 25.56° C 99% 1012.6 hPa 0 mm - 143 W/m² -
1788615860 25.56° C 99% 1012.8 hPa 0 mm - 123 W/m² -
1788615555 25° C 99% 1012.5 hPa 0 mm - 106 W/m² -

* Rain latest hour (hover to see other rain measurements)
** Current wind speed in m/s (hover to see current wind gust speed)